Retour au catalogue

CZ-2C R/B

ActifSSO
NORAD 37731·ROCKET BODY·🇨🇳 China

Lancé Jul 6, 2011 depuis Jiuquan Satellite Launch Center

Loading…

Prochains Passages (prochaines 24 heures)

TLE

FraisSource: Space-Track

Époque: Sep 14, 2026, 14:48 UTC

1 37731U 11030B   26257.61722090  .00000805  00000-0  10674-3 0  9999
2 37731  97.8750 211.4397 0053619  95.1577  77.8619 14.81620658818066

Suivez CZ-2C R/B en temps réel avec AllMySat

Download on the App Store